Change the Weather History Date:

Monday, July 1, 2013

  Actual Average Record
Temperature  
Mean Temperature 68 °F -  
Max Temperature 87 °F 76 °F 89 °F (1990)
Min Temperature 48 °F 38 °F 27 °F (1968)
Cooling Degree Days 2    
Growing Degree Days 18 (Base 50)    
Moisture  
Dew Point 45 °F    
Average Humidity 48    
Maximum Humidity 87    
Minimum Humidity 17    
Precipitation  
Precipitation 0.00 in - - ()
Sea Level Pressure  
Sea Level Pressure 30.33 in    
Wind  
Wind Speed 8 mph (North)    
Max Wind Speed 16 mph    
Max Gust Speed 20 mph    
Visibility 10 miles    
Events      
Averages and records for this station are not official NWS values.
T = Trace of Precipitation, MM = Missing Value Source: NWS Daily Summary

Daily Weather History Graph

Daily Weather History Graph

Search for Another Location

Airport or City:

Trip Planner

Search our weather history database for the weather conditions in past years. The results will help you decide how hot, cold, wet, or windy it might be!

Date:

Astronomy

Jul. 01, 2013 Rise Set
Actual Time 5:45 AM MDT 9:08 PM MDT
Civil Twilight 5:09 AM MDT 9:43 PM MDT
Nautical Twilight 4:23 AM MDT 10:30 PM MDT
Astronomical Twilight 3:25 AM MDT 11:28 PM MDT
Moon 1:24 AM MDT (7/1) 3:20 PM MDT (7/1)
Length of Visible Light 16h 33m
Length of Day
15h 22m
Waning Crescent, 35% of the Moon is Illuminated
Jul 1
Waning Crescent
Jul 8
New
Jul 15
First Quarter
Jul 22
Full
Jul 29
Last Quarter

Hourly Weather History & Observations

Time (MDT) Temp. Dew Point Humidity Pressure Visibility Wind Dir Wind Speed Gust Speed Precip Events Conditions
12:15 AM 64.4 °F 46.4 °F 52% 30.30 in 10.0 mi North 16.1 mph - N/A   Clear
12:35 AM 64.4 °F 46.4 °F 52% 30.31 in 10.0 mi NNE 11.5 mph - N/A   Clear
12:55 AM 66.2 °F 46.4 °F 49% 30.31 in 10.0 mi NNE 12.7 mph - N/A   Clear
1:15 AM 64.4 °F 46.4 °F 52% 30.32 in 10.0 mi North 11.5 mph - N/A   Clear
1:35 AM 64.4 °F 46.4 °F 52% 30.33 in 10.0 mi North 12.7 mph - N/A   Clear
1:56 AM 62.6 °F 46.4 °F 55% 30.33 in 10.0 mi North 13.8 mph - N/A   Clear
2:16 AM 60.8 °F 46.4 °F 59% 30.33 in 10.0 mi North 12.7 mph - N/A   Clear
2:35 AM 60.8 °F 46.4 °F 59% 30.33 in 10.0 mi North 11.5 mph - N/A   Clear
2:55 AM 60.8 °F 46.4 °F 59% 30.33 in 10.0 mi North 11.5 mph - N/A   Clear
3:15 AM 60.8 °F 46.4 °F 59% 30.34 in 10.0 mi NE 3.5 mph - N/A   Clear
3:55 AM 57.2 °F 46.4 °F 67% 30.34 in 10.0 mi Calm Calm - N/A   Clear
4:15 AM 57.2 °F 46.4 °F 67% 30.35 in 10.0 mi WNW 3.5 mph - N/A   Clear
4:55 AM 53.6 °F 44.6 °F 72% 30.36 in 10.0 mi Calm Calm - N/A   Clear
5:15 AM 53.6 °F 46.4 °F 77% 30.36 in 10.0 mi NNW 4.6 mph - N/A   Clear
5:35 AM 51.8 °F 44.6 °F 76% 30.37 in 10.0 mi North 4.6 mph - N/A   Clear
5:55 AM 51.8 °F 44.6 °F 76% 30.38 in 10.0 mi NNE 5.8 mph - N/A   Clear
6:15 AM 48.2 °F 44.6 °F 87% 30.39 in 10.0 mi NW 3.5 mph - N/A   Clear
6:35 AM 53.6 °F 46.4 °F 77% 30.39 in 10.0 mi Calm Calm - N/A   Clear
6:51 AM 55.4 °F 46.4 °F 72% 30.40 in 10.0 mi Calm Calm - N/A   Clear
7:51 AM 60.8 °F 46.4 °F 59% 30.40 in 10.0 mi Calm Calm - N/A   Clear
8:51 AM 66.2 °F 48.2 °F 52% 30.40 in 10.0 mi Calm Calm - N/A   Clear
9:53 AM 69.8 °F 46.4 °F 43% 30.39 in 10.0 mi Calm Calm - N/A   Clear
10:55 AM 75.2 °F 46.4 °F 36% 30.37 in 10.0 mi SSE 4.6 mph - N/A   Clear
11:57 AM 78.8 °F 46.4 °F 32% 30.35 in 10.0 mi Calm Calm - N/A   Clear
12:54 PM 82.4 °F 46.4 °F 28% 30.34 in 10.0 mi South 4.6 mph - N/A   Clear
1:53 PM 84.2 °F 42.8 °F 23% 30.32 in 10.0 mi Calm Calm - N/A   Clear
2:51 PM 84.2 °F 42.8 °F 23% 30.30 in 10.0 mi Calm Calm - N/A   Clear
3:52 PM 87.8 °F 39.2 °F 18% 30.29 in 10.0 mi NNE 10.4 mph - N/A   Partly Cloudy
4:55 PM 87.8 °F 37.4 °F 17% 30.29 in 10.0 mi North 4.6 mph 19.6 mph N/A   Clear
5:56 PM 87.8 °F 39.2 °F 18% 30.27 in 10.0 mi NW 5.8 mph - N/A   Clear
6:52 PM 82.4 °F 42.8 °F 25% 30.27 in 10.0 mi WNW 8.1 mph - N/A   Clear
7:59 PM 80.6 °F 46.4 °F 30% 30.29 in 10.0 mi WNW 8.1 mph - N/A   Clear
8:51 PM 75.2 °F 46.4 °F 36% 30.29 in 10.0 mi Calm Calm - N/A   Clear
9:15 PM 71.6 °F 44.6 °F 38% 30.29 in 10.0 mi NE 4.6 mph - N/A   Clear
9:35 PM 73.4 °F 44.6 °F 36% 30.30 in 10.0 mi ENE 4.6 mph - N/A   Clear
9:55 PM 73.4 °F 44.6 °F 36% 30.30 in 10.0 mi NW 11.5 mph 17.3 mph N/A   Clear
10:15 PM 73.4 °F 46.4 °F 38% 30.32 in 10.0 mi NNW 8.1 mph - N/A   Clear
10:35 PM 69.8 °F 46.4 °F 43% 30.32 in 10.0 mi North 9.2 mph - N/A   Clear
11:15 PM 69.8 °F 48.2 °F 46% 30.32 in 10.0 mi North 9.2 mph - N/A   Clear
11:35 PM 69.8 °F 46.4 °F 43% 30.32 in 10.0 mi North 9.2 mph - N/A   Clear
11:55 PM 66.2 °F 46.4 °F 49% 30.32 in 10.0 mi North 6.9 mph - N/A   Clear